Time,TemperatureF,DewpointF,PressureIn,WindDirection,WindDirectionDegrees,WindSpeedMPH,WindSpeedGustMPH,Humidity,HourlyPrecipIn,Conditions,Clouds,dailyrainin,SoftwareType,DateUTC
2013-04-15 07:51:00,71.0,69.8,29.79,SSW,201,5.0,6.0,96,0.00,,---,0.00,VWS V14.01,2013-04-15 12:51:00,
2013-04-15 07:52:00,71.0,69.8,29.79,South,186,5.0,6.0,96,0.00,,---,0.00,VWS V14.01,2013-04-15 12:52:00,
2013-04-15 07:57:00,71.1,69.9,29.79,SSW,213,7.0,10.0,96,0.00,,---,0.00,VWS V14.01,2013-04-15 12:57:00,
2013-04-15 08:03:00,71.2,70.0,29.79,SSE,150,4.0,9.0,96,0.00,,---,0.00,VWS V14.01,2013-04-15 13:03:00,
2013-04-15 08:08:00,71.2,69.7,29.79,South,186,9.0,12.0,95,0.00,,---,0.00,VWS V14.01,2013-04-15 13:08:00,
2013-04-15 08:13:00,71.2,69.7,29.79,South,190,8.0,12.0,95,0.00,,---,0.00,VWS V14.01,2013-04-15 13:13:00,
2013-04-15 08:18:00,71.2,69.7,29.80,SSE,150,5.0,12.0,95,0.00,,---,0.00,VWS V14.01,2013-04-15 13:18:00,
2013-04-15 08:23:00,71.2,69.7,29.80,South,184,11.0,12.0,95,0.00,,---,0.00,VWS V14.01,2013-04-15 13:23:00,
2013-04-15 08:28:00,71.2,69.7,29.80,SSE,152,11.0,14.0,95,0.00,,---,0.00,VWS V14.01,2013-04-15 13:28:00,
2013-04-15 08:33:00,71.3,69.8,29.80,SSE,161,8.0,14.0,95,0.00,,---,0.00,VWS V14.01,2013-04-15 13:33:00,
2013-04-15 08:38:00,71.3,69.8,29.80,SSE,158,5.0,14.0,95,0.00,,---,0.00,VWS V14.01,2013-04-15 13:38:00,
2013-04-15 08:43:00,71.4,69.9,29.80,SSW,194,8.0,14.0,95,0.00,,---,0.00,VWS V14.01,2013-04-15 13:43:00,
2013-04-15 08:48:00,71.4,69.6,29.81,SSE,150,9.0,14.0,94,0.00,,---,0.00,VWS V14.01,2013-04-15 13:48:00,
2013-04-15 08:53:00,71.4,69.6,29.81,SSE,166,4.0,14.0,94,0.00,,---,0.00,VWS V14.01,2013-04-15 13:53:00,
2013-04-15 08:58:00,71.5,69.7,29.81,SSE,158,3.0,14.0,94,0.00,,---,0.00,VWS V14.01,2013-04-15 13:58:00,
2013-04-15 09:03:00,71.5,69.7,29.81,SSE,149,6.0,7.0,94,0.00,,---,0.00,VWS V14.01,2013-04-15 14:03:00,
2013-04-15 09:08:00,71.5,69.7,29.81,South,190,6.0,9.0,94,0.00,,---,0.00,VWS V14.01,2013-04-15 14:08:00,
2013-04-15 09:13:00,71.6,69.8,29.81,South,169,5.0,9.0,94,0.00,,---,0.00,VWS V14.01,2013-04-15 14:13:00,
2013-04-15 09:18:00,71.6,69.8,29.81,SE,145,3.0,9.0,94,0.00,,---,0.00,VWS V14.01,2013-04-15 14:18:00,
2013-04-15 09:23:00,71.6,69.8,29.81,SE,143,4.0,9.0,94,0.00,,---,0.00,VWS V14.01,2013-04-15 14:23:00,
2013-04-15 09:28:00,71.6,69.8,29.81,SSE,167,3.0,10.0,94,0.00,,---,0.00,VWS V14.01,2013-04-15 14:28:00,
2013-04-15 09:33:00,71.6,69.8,29.82,SSE,161,7.0,10.0,94,0.00,,---,0.00,VWS V14.01,2013-04-15 14:33:00,
2013-04-15 09:38:00,71.5,69.7,29.82,SSE,163,6.0,10.0,94,0.00,,---,0.00,VWS V14.01,2013-04-15 14:38:00,
2013-04-15 09:43:00,71.5,69.7,29.82,South,169,5.0,11.0,94,0.00,,---,0.00,VWS V14.01,2013-04-15 14:43:00,
2013-04-15 09:48:00,71.6,69.8,29.82,SE,142,6.0,11.0,94,0.00,,---,0.00,VWS V14.01,2013-04-15 14:48:00,
2013-04-15 09:53:00,71.6,69.8,29.82,SSE,161,4.0,11.0,94,0.00,,---,0.00,VWS V14.01,2013-04-15 14:53:00,
2013-04-15 09:58:00,71.7,69.9,29.82,South,180,3.0,11.0,94,0.00,,---,0.00,VWS V14.01,2013-04-15 14:58:00,
2013-04-15 10:03:00,71.8,70.0,29.82,SSE,153,7.0,9.0,94,0.00,,---,0.00,VWS V14.01,2013-04-15 15:03:00,
2013-04-15 10:08:00,71.8,70.0,29.83,SSW,195,5.0,10.0,94,0.00,,---,0.00,VWS V14.01,2013-04-15 15:08:00,
2013-04-15 10:13:00,71.8,70.0,29.83,SSE,158,3.0,10.0,94,0.00,,---,0.00,VWS V14.01,2013-04-15 15:13:00,
2013-04-15 10:18:00,72.0,70.2,29.83,SSE,149,5.0,10.0,94,0.00,,---,0.00,VWS V14.01,2013-04-15 15:18:00,
2013-04-15 10:23:00,72.2,70.1,29.84,SSE,147,5.0,10.0,93,0.00,,---,0.00,VWS V14.01,2013-04-15 15:23:00,
2013-04-15 10:28:00,72.2,70.1,29.84,South,190,4.0,10.0,93,0.00,,---,0.00,VWS V14.01,2013-04-15 15:28:00,
2013-04-15 10:33:00,72.3,70.2,29.83,South,175,4.0,10.0,93,0.00,,---,0.00,VWS V14.01,2013-04-15 15:33:00,
2013-04-15 10:38:00,72.4,70.3,29.83,SSE,158,5.0,10.0,93,0.00,,---,0.00,VWS V14.01,2013-04-15 15:38:00,
2013-04-15 10:43:00,72.5,70.4,29.83,SSE,162,4.0,10.0,93,0.00,,---,0.00,VWS V14.01,2013-04-15 15:43:00,
2013-04-15 10:48:00,72.6,70.2,29.83,SSE,159,6.0,10.0,92,0.00,,---,0.00,VWS V14.01,2013-04-15 15:48:00,
2013-04-15 10:53:00,72.8,70.7,29.83,SE,142,5.0,10.0,93,0.00,,---,0.00,VWS V14.01,2013-04-15 15:53:00,
2013-04-15 10:58:00,73.0,70.5,29.83,SW,221,3.0,11.0,92,0.00,,---,0.00,VWS V14.01,2013-04-15 15:58:00,
2013-04-15 11:03:00,73.4,70.9,29.83,SE,129,9.0,9.0,92,0.00,,---,0.00,VWS V14.01,2013-04-15 16:03:00,
2013-04-15 11:08:00,73.5,71.0,29.83,SSE,160,4.0,9.0,92,0.00,,---,0.00,VWS V14.01,2013-04-15 16:08:00,
2013-04-15 11:14:00,73.7,71.2,29.84,SSE,165,5.0,9.0,92,0.00,,---,0.00,VWS V14.01,2013-04-15 16:14:00,
2013-04-15 11:28:00,74.9,71.4,29.83,SSE,155,3.0,9.0,89,0.00,,---,0.00,VWS V14.01,2013-04-15 16:28:00,
2013-04-15 11:33:00,75.2,71.4,29.83,ESE,118,5.0,9.0,88,0.00,,---,0.00,VWS V14.01,2013-04-15 16:33:00,
2013-04-15 11:38:00,75.0,71.2,29.83,SSE,166,5.0,9.0,88,0.00,,---,0.00,VWS V14.01,2013-04-15 16:38:00,
2013-04-15 11:43:00,75.3,71.5,29.83,SE,137,4.0,10.0,88,0.00,,---,0.00,VWS V14.01,2013-04-15 16:43:00,
2013-04-15 11:48:00,75.8,71.7,29.83,SSE,148,5.0,11.0,87,0.00,,---,0.00,VWS V14.01,2013-04-15 16:48:00,
2013-04-15 11:53:00,76.1,71.6,29.83,SSE,162,6.0,12.0,86,0.00,,---,0.00,VWS V14.01,2013-04-15 16:53:00,
2013-04-15 11:58:00,76.4,71.6,29.83,South,177,7.0,12.0,85,0.00,,---,0.00,VWS V14.01,2013-04-15 16:58:00,
2013-04-15 12:03:00,76.6,71.8,29.83,SSE,152,11.0,12.0,85,0.00,,---,0.00,VWS V14.01,2013-04-15 17:03:00,
2013-04-15 12:08:00,76.6,71.8,29.83,South,170,6.0,12.0,85,0.00,,---,0.00,VWS V14.01,2013-04-15 17:08:00,
2013-04-15 12:13:00,76.8,71.9,29.83,SSE,150,4.0,12.0,85,0.00,,---,0.00,VWS V14.01,2013-04-15 17:13:00,
2013-04-15 12:18:00,77.1,71.9,29.83,SSE,150,8.0,12.0,84,0.00,,---,0.00,VWS V14.01,2013-04-15 17:18:00,
2013-04-15 12:21:00,77.2,72.0,29.83,SE,142,5.0,12.0,84,0.00,,---,0.00,VWS V14.01,2013-04-15 17:21:00,
2013-04-15 12:24:00,76.9,71.3,29.83,SSE,167,3.0,12.0,83,0.00,,---,0.00,VWS V14.01,2013-04-15 17:24:00,
2013-04-15 12:29:00,76.8,71.6,29.83,SSE,153,7.0,12.0,84,0.00,,---,0.00,VWS V14.01,2013-04-15 17:29:00,
2013-04-15 12:34:00,76.9,71.7,29.83,SSE,160,10.0,12.0,84,0.00,,---,0.00,VWS V14.01,2013-04-15 17:34:00,
2013-04-15 12:39:00,76.7,71.5,29.83,SSW,195,10.0,12.0,84,0.00,,---,0.00,VWS V14.01,2013-04-15 17:39:00,
2013-04-15 12:44:00,76.7,71.9,29.83,SSE,163,9.0,12.0,85,0.00,,---,0.00,VWS V14.01,2013-04-15 17:44:00,
2013-04-15 12:49:00,77.0,71.8,29.83,South,169,6.0,12.0,84,0.00,,---,0.00,VWS V14.01,2013-04-15 17:49:00,
2013-04-15 12:54:00,77.3,72.1,29.82,SE,146,5.0,12.0,84,0.00,,---,0.00,VWS V14.01,2013-04-15 17:54:00,
2013-04-15 13:00:00,77.1,71.9,29.82,SE,130,3.0,12.0,84,0.00,,---,0.00,VWS V14.01,2013-04-15 18:00:00,
2013-04-15 13:05:00,77.1,71.9,29.82,SE,143,6.0,11.0,84,0.00,,---,0.00,VWS V14.01,2013-04-15 18:05:00,
2013-04-15 13:10:00,76.9,71.7,29.82,ESE,105,8.0,11.0,84,0.00,,---,0.00,VWS V14.01,2013-04-15 18:10:00,
2013-04-15 13:15:00,76.9,71.3,29.82,ESE,122,9.0,11.0,83,0.00,,---,0.00,VWS V14.01,2013-04-15 18:15:00,
2013-04-15 13:20:00,76.2,71.4,29.81,ESE,120,6.0,11.0,85,0.00,,---,0.00,VWS V14.01,2013-04-15 18:20:00,
2013-04-15 13:25:00,75.7,71.2,29.81,ESE,115,5.0,11.0,86,0.00,,---,0.00,VWS V14.01,2013-04-15 18:25:00,
2013-04-15 13:29:00,75.7,71.2,29.81,ESE,110,9.0,11.0,86,0.00,,---,0.00,VWS V14.01,2013-04-15 18:29:00,
2013-04-15 13:34:00,76.1,71.6,29.81,SE,129,9.0,11.0,86,0.00,,---,0.00,VWS V14.01,2013-04-15 18:34:00,
2013-04-15 13:39:00,75.8,71.3,29.80,ESE,114,8.0,12.0,86,0.00,,---,0.00,VWS V14.01,2013-04-15 18:39:00,
2013-04-15 13:44:00,75.4,70.9,29.80,ESE,118,8.0,12.0,86,0.00,,---,0.00,VWS V14.01,2013-04-15 18:44:00,
2013-04-15 13:49:00,75.5,71.7,29.80,ESE,102,8.0,12.0,88,0.00,,---,0.00,VWS V14.01,2013-04-15 18:49:00,
2013-04-15 13:54:00,76.0,71.9,29.80,ESE,103,8.0,12.0,87,0.00,,---,0.00,VWS V14.01,2013-04-15 18:54:00,
2013-04-15 13:59:00,76.5,71.7,29.80,East,86,12.0,12.0,85,0.00,,---,0.00,VWS V14.01,2013-04-15 18:59:00,
2013-04-15 14:04:00,76.4,71.9,29.80,East,98,9.0,13.0,86,0.00,,---,0.00,VWS V14.01,2013-04-15 19:04:00,
2013-04-15 14:09:00,76.4,71.9,29.80,ESE,123,11.0,13.0,86,0.00,,---,0.00,VWS V14.01,2013-04-15 19:09:00,
2013-04-15 14:14:00,76.1,71.6,29.80,ESE,110,10.0,13.0,86,0.00,,---,0.00,VWS V14.01,2013-04-15 19:14:00,
2013-04-15 14:19:00,76.1,72.3,29.79,ESE,105,11.0,14.0,88,0.00,,---,0.00,VWS V14.01,2013-04-15 19:19:00,
2013-04-15 14:24:00,76.0,71.5,29.79,East,91,8.0,15.0,86,0.00,,---,0.00,VWS V14.01,2013-04-15 19:24:00,
2013-04-15 14:29:00,75.7,71.6,29.79,ESE,109,4.0,15.0,87,0.00,,---,0.00,VWS V14.01,2013-04-15 19:29:00,
2013-04-15 14:34:00,75.4,71.3,29.79,ESE,108,12.0,15.0,87,0.00,,---,0.00,VWS V14.01,2013-04-15 19:34:00,
2013-04-15 14:39:00,75.2,71.7,29.79,ESE,102,9.0,15.0,89,0.00,,---,0.00,VWS V14.01,2013-04-15 19:39:00,
2013-04-15 14:44:00,76.1,72.6,29.80,East,101,4.0,15.0,89,0.00,,---,0.00,VWS V14.01,2013-04-15 19:44:00,
2013-04-15 14:49:00,76.3,72.2,29.79,East,94,12.0,15.0,87,0.00,,---,0.00,VWS V14.01,2013-04-15 19:49:00,
2013-04-15 14:55:00,76.3,71.8,29.79,ESE,103,8.0,15.0,86,0.00,,---,0.00,VWS V14.01,2013-04-15 19:55:00,
2013-04-15 14:57:00,76.2,71.7,29.79,East,99,8.0,15.0,86,0.00,,---,0.00,VWS V14.01,2013-04-15 19:57:00,
2013-04-15 15:01:00,75.9,71.4,29.78,SE,129,10.0,11.0,86,0.00,,---,0.00,VWS V14.01,2013-04-15 20:01:00,
2013-04-15 15:02:00,75.9,71.4,29.78,East,96,7.0,11.0,86,0.00,,---,0.00,VWS V14.01,2013-04-15 20:02:00,
2013-04-15 15:07:00,75.7,71.9,29.78,East,86,3.0,13.0,88,0.00,,---,0.00,VWS V14.01,2013-04-15 20:07:00,
2013-04-15 15:12:00,76.2,72.1,29.78,SE,133,6.0,13.0,87,0.00,,---,0.00,VWS V14.01,2013-04-15 20:12:00,
2013-04-15 15:17:00,76.3,71.8,29.78,ESE,112,8.0,13.0,86,0.00,,---,0.00,VWS V14.01,2013-04-15 20:17:00,
2013-04-15 15:22:00,76.3,71.8,29.77,ESE,122,9.0,13.0,86,0.00,,---,0.00,VWS V14.01,2013-04-15 20:22:00,
2013-04-15 15:27:00,76.4,71.9,29.77,East,90,7.0,13.0,86,0.00,,---,0.00,VWS V14.01,2013-04-15 20:27:00,
2013-04-15 15:32:00,76.1,71.6,29.77,ESE,103,10.0,14.0,86,0.00,,---,0.00,VWS V14.01,2013-04-15 20:32:00,
2013-04-15 15:37:00,76.3,71.8,29.76,ESE,114,5.0,14.0,86,0.00,,---,0.00,VWS V14.01,2013-04-15 20:37:00,
2013-04-15 15:42:00,76.5,72.0,29.76,ESE,115,9.0,14.0,86,0.00,,---,0.00,VWS V14.01,2013-04-15 20:42:00,
2013-04-15 15:47:00,76.5,71.7,29.76,SE,129,7.0,14.0,85,0.00,,---,0.00,VWS V14.01,2013-04-15 20:47:00,
2013-04-15 15:52:00,76.5,72.0,29.76,SE,124,10.0,14.0,86,0.00,,---,0.00,VWS V14.01,2013-04-15 20:52:00,
2013-04-15 15:57:00,76.4,71.6,29.76,ESE,102,10.0,14.0,85,0.00,,---,0.00,VWS V14.01,2013-04-15 20:57:00,
2013-04-15 16:02:00,76.2,72.1,29.76,ESE,117,10.0,12.0,87,0.00,,---,0.00,VWS V14.01,2013-04-15 21:02:00,
2013-04-15 16:07:00,76.1,71.9,29.76,ESE,110,9.0,13.0,87,0.00,,---,0.00,VWS V14.01,2013-04-15 21:07:00,
2013-04-15 16:12:00,75.9,71.8,29.75,ESE,110,10.0,14.0,87,0.00,,---,0.00,VWS V14.01,2013-04-15 21:12:00,
2013-04-15 16:17:00,75.8,72.0,29.75,East,97,12.0,14.0,88,0.00,,---,0.00,VWS V14.01,2013-04-15 21:17:00,
2013-04-15 16:22:00,75.9,71.8,29.75,ENE,78,9.0,14.0,87,0.00,,---,0.00,VWS V14.01,2013-04-15 21:22:00,
2013-04-15 16:27:00,76.1,71.9,29.75,SSE,160,6.0,14.0,87,0.00,,---,0.00,VWS V14.01,2013-04-15 21:27:00,
2013-04-15 16:32:00,75.9,71.8,29.75,ESE,106,10.0,14.0,87,0.00,,---,0.00,VWS V14.01,2013-04-15 21:32:00,
2013-04-15 16:37:00,76.1,71.9,29.75,SSE,167,6.0,14.0,87,0.00,,---,0.00,VWS V14.01,2013-04-15 21:37:00,
2013-04-15 16:42:00,75.9,71.4,29.75,East,94,11.0,14.0,86,0.00,,---,0.00,VWS V14.01,2013-04-15 21:42:00,
2013-04-15 16:47:00,75.5,71.7,29.75,SE,138,11.0,14.0,88,0.00,,---,0.00,VWS V14.01,2013-04-15 21:47:00,
2013-04-15 16:52:00,75.6,71.8,29.75,ESE,115,7.0,14.0,88,0.00,,---,0.00,VWS V14.01,2013-04-15 21:52:00,
2013-04-15 16:57:00,75.9,71.8,29.75,ESE,122,11.0,14.0,87,0.00,,---,0.00,VWS V14.01,2013-04-15 21:57:00,
2013-04-15 17:02:00,75.8,71.7,29.75,SE,132,8.0,14.0,87,0.00,,---,0.00,VWS V14.01,2013-04-15 22:02:00,
2013-04-15 17:07:00,75.7,71.6,29.75,East,95,7.0,14.0,87,0.00,,---,0.00,VWS V14.01,2013-04-15 22:07:00,
2013-04-15 17:12:00,75.6,71.8,29.75,ESE,110,8.0,14.0,88,0.00,,---,0.00,VWS V14.01,2013-04-15 22:12:00,
2013-04-15 17:17:00,75.4,71.3,29.75,East,96,9.0,14.0,87,0.00,,---,0.00,VWS V14.01,2013-04-15 22:17:00,
2013-04-15 17:22:00,75.2,71.4,29.75,ESE,117,8.0,14.0,88,0.00,,---,0.00,VWS V14.01,2013-04-15 22:22:00,
2013-04-15 17:27:00,75.3,71.5,29.75,ESE,108,11.0,14.0,88,0.00,,---,0.00,VWS V14.01,2013-04-15 22:27:00,
2013-04-15 17:32:00,75.2,71.4,29.75,East,101,6.0,14.0,88,0.00,,---,0.00,VWS V14.01,2013-04-15 22:32:00,
2013-04-15 17:37:00,75.2,71.7,29.75,ESE,115,8.0,14.0,89,0.00,,---,0.00,VWS V14.01,2013-04-15 22:37:00,
2013-04-15 17:42:00,75.1,71.3,29.75,East,90,7.0,14.0,88,0.00,,---,0.00,VWS V14.01,2013-04-15 22:42:00,
2013-04-15 17:47:00,75.0,71.2,29.75,ESE,109,8.0,14.0,88,0.00,,---,0.00,VWS V14.01,2013-04-15 22:47:00,
2013-04-15 17:52:00,74.8,71.3,29.76,East,100,9.0,14.0,89,0.00,,---,0.00,VWS V14.01,2013-04-15 22:52:00,
2013-04-15 17:57:00,74.7,71.2,29.76,East,85,6.0,14.0,89,0.00,,---,0.00,VWS V14.01,2013-04-15 22:57:00,
2013-04-15 18:02:00,74.4,70.9,29.76,ESE,105,11.0,14.0,89,0.00,,---,0.00,VWS V14.01,2013-04-15 23:02:00,
2013-04-15 18:07:00,74.2,71.1,29.76,East,90,9.0,14.0,90,0.00,,---,0.00,VWS V14.01,2013-04-15 23:07:00,
2013-04-15 18:12:00,74.2,71.1,29.75,ESE,106,7.0,14.0,90,0.00,,---,0.00,VWS V14.01,2013-04-15 23:12:00,
2013-04-15 18:17:00,74.2,71.1,29.75,East,101,7.0,14.0,90,0.00,,---,0.00,VWS V14.01,2013-04-15 23:17:00,
2013-04-15 18:22:00,74.1,71.0,29.75,East,91,10.0,14.0,90,0.00,,---,0.00,VWS V14.01,2013-04-15 23:22:00,
2013-04-15 18:27:00,73.8,70.7,29.75,East,91,10.0,16.0,90,0.00,,---,0.00,VWS V14.01,2013-04-15 23:27:00,
2013-04-15 18:32:00,73.7,70.9,29.75,ESE,110,12.0,16.0,91,0.00,,---,0.00,VWS V14.01,2013-04-15 23:32:00,
2013-04-15 18:37:00,73.7,70.9,29.75,East,79,13.0,16.0,91,0.00,,---,0.00,VWS V14.01,2013-04-15 23:37:00,
2013-04-15 18:42:00,73.5,70.7,29.75,ENE,65,12.0,16.0,91,0.00,,---,0.00,VWS V14.01,2013-04-15 23:42:00,
2013-04-15 18:47:00,73.5,70.7,29.75,East,97,5.0,16.0,91,0.00,,---,0.00,VWS V14.01,2013-04-15 23:47:00,
2013-04-15 18:52:00,73.4,70.6,29.76,East,86,10.0,16.0,91,0.00,,---,0.00,VWS V14.01,2013-04-15 23:52:00,
2013-04-15 18:57:00,73.2,70.4,29.76,ENE,66,14.0,16.0,91,0.00,,---,0.00,VWS V14.01,2013-04-15 23:57:00,
2013-04-15 19:02:00,73.1,70.6,29.76,East,98,10.0,15.0,92,0.00,,---,0.00,VWS V14.01,2013-04-16 00:02:00,
2013-04-15 19:07:00,73.0,70.5,29.76,East,95,10.0,15.0,92,0.00,,---,0.00,VWS V14.01,2013-04-16 00:07:00,
2013-04-15 19:12:00,72.9,70.4,29.76,East,92,12.0,15.0,92,0.00,,---,0.00,VWS V14.01,2013-04-16 00:12:00,
2013-04-15 19:17:00,72.7,70.6,29.77,East,86,8.0,15.0,93,0.00,,---,0.00,VWS V14.01,2013-04-16 00:17:00,
2013-04-15 19:22:00,72.6,70.5,29.76,East,96,9.0,15.0,93,0.00,,---,0.00,VWS V14.01,2013-04-16 00:22:00,
2013-04-15 19:27:00,72.5,70.4,29.76,East,97,9.0,18.0,93,0.00,,---,0.00,VWS V14.01,2013-04-16 00:27:00,
2013-04-15 19:32:00,72.4,70.6,29.77,ENE,71,9.0,18.0,94,0.00,,---,0.00,VWS V14.01,2013-04-16 00:32:00,
2013-04-15 19:37:00,72.2,70.4,29.76,East,79,11.0,18.0,94,0.00,,---,0.00,VWS V14.01,2013-04-16 00:37:00,
2013-04-15 19:42:00,72.1,70.3,29.76,ENE,70,11.0,18.0,94,0.00,,---,0.00,VWS V14.01,2013-04-16 00:42:00,
2013-04-15 19:47:00,72.0,70.2,29.77,ESE,103,11.0,18.0,94,0.00,,---,0.00,VWS V14.01,2013-04-16 00:47:00,
2013-04-15 19:52:00,72.0,70.2,29.77,East,81,11.0,18.0,94,0.00,,---,0.00,VWS V14.01,2013-04-16 00:52:00,
2013-04-15 19:57:00,72.0,70.5,29.77,East,97,10.0,18.0,95,0.00,,---,0.00,VWS V14.01,2013-04-16 00:57:00,
2013-04-15 20:02:00,71.9,70.4,29.77,East,94,15.0,16.0,95,0.00,,---,0.00,VWS V14.01,2013-04-16 01:02:00,
2013-04-15 20:07:00,71.9,70.4,29.77,ENE,57,7.0,17.0,95,0.00,,---,0.00,VWS V14.01,2013-04-16 01:07:00,
2013-04-15 20:12:00,71.8,70.3,29.77,East,98,7.0,17.0,95,0.00,,---,0.00,VWS V14.01,2013-04-16 01:12:00,
2013-04-15 20:17:00,71.8,70.3,29.77,ESE,109,8.0,17.0,95,0.00,,---,0.00,VWS V14.01,2013-04-16 01:17:00,
2013-04-15 20:22:00,71.7,70.2,29.77,East,88,8.0,17.0,95,0.00,,---,0.00,VWS V14.01,2013-04-16 01:22:00,
2013-04-15 20:27:00,71.6,70.1,29.77,East,96,7.0,20.0,95,0.00,,---,0.00,VWS V14.01,2013-04-16 01:27:00,
2013-04-15 20:32:00,71.6,70.4,29.78,ENE,75,9.0,20.0,96,0.00,,---,0.00,VWS V14.01,2013-04-16 01:32:00,
2013-04-15 20:37:00,71.5,70.3,29.78,East,96,9.0,20.0,96,0.00,,---,0.00,VWS V14.01,2013-04-16 01:37:00,
2013-04-15 20:42:00,71.5,70.3,29.78,East,98,13.0,20.0,96,0.00,,---,0.00,VWS V14.01,2013-04-16 01:42:00,
2013-04-15 20:47:00,71.5,70.3,29.78,ENE,66,12.0,20.0,96,0.00,,---,0.00,VWS V14.01,2013-04-16 01:47:00,
2013-04-15 20:52:00,71.5,70.3,29.78,East,90,15.0,20.0,96,0.00,,---,0.00,VWS V14.01,2013-04-16 01:52:00,
2013-04-15 20:57:00,71.5,70.3,29.79,East,86,5.0,20.0,96,0.00,,---,0.00,VWS V14.01,2013-04-16 01:57:00,
2013-04-15 21:02:00,71.5,70.3,29.79,ESE,103,13.0,17.0,96,0.00,,---,0.00,VWS V14.01,2013-04-16 02:02:00,
2013-04-15 21:07:00,71.5,70.3,29.79,ENE,72,15.0,17.0,96,0.00,,---,0.00,VWS V14.01,2013-04-16 02:07:00,
2013-04-15 21:12:00,71.5,70.3,29.80,SE,126,8.0,19.0,96,0.00,,---,0.00,VWS V14.01,2013-04-16 02:12:00,
2013-04-15 21:17:00,71.6,70.4,29.80,East,86,7.0,19.0,96,0.00,,---,0.00,VWS V14.01,2013-04-16 02:17:00,
2013-04-15 21:22:00,71.6,70.4,29.80,East,94,5.0,19.0,96,0.00,,---,0.00,VWS V14.01,2013-04-16 02:22:00,
2013-04-15 21:27:00,71.7,70.5,29.81,ESE,109,10.0,19.0,96,0.00,,---,0.00,VWS V14.01,2013-04-16 02:27:00,
2013-04-15 21:32:00,71.7,70.5,29.81,ESE,113,10.0,19.0,96,0.00,,---,0.00,VWS V14.01,2013-04-16 02:32:00,
2013-04-15 21:37:00,71.7,70.5,29.81,ESE,107,11.0,19.0,96,0.00,,---,0.00,VWS V14.01,2013-04-16 02:37:00,
2013-04-15 21:42:00,71.7,70.5,29.81,East,89,12.0,19.0,96,0.00,,---,0.00,VWS V14.01,2013-04-16 02:42:00,
2013-04-15 21:47:00,71.7,70.5,29.81,East,89,7.0,19.0,96,0.00,,---,0.00,VWS V14.01,2013-04-16 02:47:00,
2013-04-15 21:52:00,71.7,70.5,29.81,East,101,14.0,19.0,96,0.00,,---,0.00,VWS V14.01,2013-04-16 02:52:00,
2013-04-15 21:57:00,71.8,70.6,29.82,East,90,8.0,19.0,96,0.00,,---,0.00,VWS V14.01,2013-04-16 02:57:00,
2013-04-15 22:02:00,71.9,70.7,29.82,ESE,118,10.0,12.0,96,0.00,,---,0.00,VWS V14.01,2013-04-16 03:02:00,
2013-04-15 22:07:00,72.0,70.8,29.82,East,94,9.0,14.0,96,0.00,,---,0.00,VWS V14.01,2013-04-16 03:07:00,
2013-04-15 22:12:00,72.1,70.9,29.82,SE,127,5.0,14.0,96,0.00,,---,0.00,VWS V14.01,2013-04-16 03:12:00,
2013-04-15 22:17:00,72.1,70.9,29.83,East,98,9.0,14.0,96,0.00,,---,0.00,VWS V14.01,2013-04-16 03:17:00,
2013-04-15 22:22:00,72.2,71.0,29.83,ESE,109,4.0,14.0,96,0.00,,---,0.00,VWS V14.01,2013-04-16 03:22:00,
2013-04-15 22:27:00,72.2,71.0,29.83,ESE,110,10.0,14.0,96,0.00,,---,0.00,VWS V14.01,2013-04-16 03:27:00,
2013-04-15 22:32:00,72.2,71.0,29.83,SE,126,5.0,14.0,96,0.00,,---,0.00,VWS V14.01,2013-04-16 03:32:00,
2013-04-15 22:37:00,72.3,71.1,29.83,SE,124,11.0,14.0,96,0.00,,---,0.00,VWS V14.01,2013-04-16 03:37:00,
2013-04-15 22:42:00,72.2,71.0,29.83,ESE,105,6.0,14.0,96,0.00,,---,0.00,VWS V14.01,2013-04-16 03:42:00,
2013-04-15 22:47:00,72.2,71.0,29.83,East,96,9.0,14.0,96,0.00,,---,0.00,VWS V14.01,2013-04-16 03:47:00,
2013-04-15 22:52:00,72.2,71.0,29.83,SE,133,5.0,14.0,96,0.00,,---,0.00,VWS V14.01,2013-04-16 03:52:00,
2013-04-15 22:57:00,72.1,70.9,29.83,ESE,118,7.0,14.0,96,0.00,,---,0.00,VWS V14.01,2013-04-16 03:57:00,
2013-04-15 23:00:00,72.1,70.9,29.83,ESE,102,10.0,14.0,96,0.00,,---,0.00,VWS V14.01,2013-04-16 04:00:00,
2013-04-15 23:05:00,72.1,70.9,29.83,ESE,120,10.0,12.0,96,0.00,,---,0.00,VWS V14.01,2013-04-16 04:05:00,
2013-04-15 23:10:00,72.1,70.9,29.83,ESE,103,4.0,12.0,96,0.00,,---,0.00,VWS V14.01,2013-04-16 04:10:00,
2013-04-15 23:15:00,72.1,70.9,29.83,ESE,108,5.0,12.0,96,0.00,,---,0.00,VWS V14.01,2013-04-16 04:15:00,
2013-04-15 23:20:00,72.1,70.9,29.83,East,92,4.0,12.0,96,0.00,,---,0.00,VWS V14.01,2013-04-16 04:20:00,
2013-04-15 23:25:00,72.1,70.9,29.84,ESE,116,5.0,12.0,96,0.00,,---,0.00,VWS V14.01,2013-04-16 04:25:00,
2013-04-15 23:30:00,72.1,70.9,29.84,SE,129,9.0,12.0,96,0.00,,---,0.00,VWS V14.01,2013-04-16 04:30:00,
2013-04-15 23:35:00,72.1,70.9,29.84,SE,142,3.0,12.0,96,0.00,,---,0.00,VWS V14.01,2013-04-16 04:35:00,
2013-04-15 23:40:00,72.0,70.8,29.84,East,82,5.0,12.0,96,0.00,,---,0.00,VWS V14.01,2013-04-16 04:40:00,
2013-04-15 23:45:00,72.1,70.9,29.84,ESE,120,5.0,12.0,96,0.00,,---,0.00,VWS V14.01,2013-04-16 04:45:00,
2013-04-15 23:50:00,72.0,70.8,29.83,East,86,8.0,12.0,96,0.00,,---,0.00,VWS V14.01,2013-04-16 04:50:00,
2013-04-15 23:55:00,72.0,71.1,29.83,ESE,112,11.0,12.0,97,0.00,,---,0.00,VWS V14.01,2013-04-16 04:55:00,